Regional Weather Roundup
Issued by NWS Cleveland, OH

Home | Current Version | Previous Version | Graphics & Text | Print | Product List | Glossary On
Versions: 1 2 3 4 5 6 7 8 9 10 11 12 13 14 15 16 17 18 19 20 21 22 23 24 25 26 27 28 29 30 31 32 33 34 35 36 37 38 39 40 41 42 43 44 45 46 47 48 49 50
000
ASUS41 KCLE 242010
RWRCLE
OHIO REGIONAL WEATHER ROUNDUP
NATIONAL WEATHER SERVICE CLEVELAND, OH
400 PM EDT SUN SEP 24 2017

NOTE: "FAIR" INDICATES FEW OR NO CLOUDS BELOW 12,000 FEET WITH NO
SIGNIFICANT WEATHER AND/OR OBSTRUCTIONS TO VISIBILITY.

OHZ001>008-015>018-024>027-034-035-043-044-242100-
   NORTHWEST OHIO

CITY           SKY/WX    TMP DP  RH WIND       PRES   REMARKS
DEFIANCE       SUNNY     90  55  30 SE9       30.07F
FINDLAY        SUNNY     91  56  30 E9        30.07F
TOLEDO EXPRESS SUNNY     92  60  34 VRB5      30.08F HX  91
TOLEDO EXEC    SUNNY     89  63  41 NE9       30.09F HX  90
LIMA           SUNNY     90  56  31 E8        30.08F
$$

OHZ009>014-019>023-028>033-038-089-242100-
   NORTHEAST OHIO

CITY           SKY/WX    TMP DP  RH WIND       PRES   REMARKS
CLE-HOPKINS    MOSUNNY   90  66  45 N13       30.11F HX  92
CLE-LAKEFRONT  SUNNY     80  68  66 NE12      30.09F
CUY CO. ARPT   SUNNY     91  68  46 NE10      30.11F HX  95
LORAIN-ELYRIA  SUNNY     87  63  44 NE10      30.10F
ASHTABULA      SUNNY     88  65  46 NE7       30.12F HX  90
AKRON-CANTON   MOSUNNY   91  57  31 E8        30.11F
WOOSTER        SUNNY     89  57  33 E6        30.11F
MANSFIELD      SUNNY     89  60  37 E10       30.11F
YOUNGSTOWN     MOSUNNY   89  63  41 E8        30.11F HX  90
$$

OHZ042-051>053-060>062-070>072-077>081-242100-
  SOUTHWEST OHIO

CITY           SKY/WX    TMP DP  RH WIND       PRES   REMARKS
CINC-COVINGTON MOSUNNY   89  56  32 SE9       30.06F
CINC-LUNKEN    SUNNY     90  52  27 SE7       30.05F
HAMILTON       SUNNY     89  54  30 E9        30.06F
DAYTON         MOSUNNY   88  53  30 SE13G22   30.08F
WRIGHT-PAT AFB SUNNY     91  50  24 SE7       30.07F
DAYTON GENERAL SUNNY     88  51  28 S12       30.07F
WILMINGTON     SUNNY     86  54  33 SE9       30.08F
$$

OHZ036-037-039>041-045>050-054>059-063>069-073>076-082>088-242100-
  CENTRAL AND SOUTHEAST OHIO

CITY           SKY/WX    TMP DP  RH WIND       PRES   REMARKS
COLUMBUS       MOSUNNY   90  59  35 E10G16    30.08F
OSU AIRPORT    SUNNY     88  60  38 E9        30.08F
BOLTON FIELD   SUNNY     88  61  40 SE8G16    30.09F
RICKENBACK AFB SUNNY     88  59  37 SE7       30.07F
NEWARK         SUNNY     89  58  34 SE7       30.08F
MARION         SUNNY     90  57  32 E9        30.09F
LANCASTER      SUNNY     86  62  44 SE7       30.09F
ZANESVILLE     SUNNY     90  57  32 E7        30.08F
NEW PHILLY     NOT AVBL
$$




USA.gov is the U.S. government's official web portal to all federal, state and local government web resources and services.